{"data":{"norad_id":59864,"intl_designator":"2024-098G","name":"STARLINK-31931","alt_names":[],"object_type":"PAYLOAD","status":"ACTIVE","operator":null,"country":"US","launch_date":"2024-05-24","launch_site_code":"AFETR","launch_vehicle":null,"mission":null,"orbit_class":"UNKNOWN","rcs_meters":null,"size_class":null,"mass_kg":null,"dimensions":null,"purposes":["comms"],"wikipedia_slug":null,"has_3d_model":false,"image_url":null,"decayed_at":null,"tle_current":{"epoch":"2026-09-21T00:10:37.990560Z","epoch_age_seconds":130733,"freshness":"FRESH","line1":"1 59864U 24098G   26264.00738415  .00000439  00000+0  25488-4 0  9999","line2":"2 59864  43.0006 255.2723 0001291 239.2154 120.8571 15.27587176131718","mean_motion":15.27587176,"eccentricity":0.0001291,"inclination_deg":43.0006,"raan_deg":255.2723,"arg_perigee_deg":239.2154,"mean_anomaly_deg":120.8571,"bstar":2.5488e-5,"rev_number":13171,"period_min":94.266305885773,"perigee_km":482.14183224725,"apogee_km":483.91338494919,"semimajor_km":6861.1646085982,"source":"CELESTRAK","updated_at":"2026-09-22T09:00:49.101373Z"}}}